Regional Weather Roundup
Issued by NWS

Home | Current Version | Previous Version | Text Only | Print | Product List | Glossary Off
Versions: 1 2 3 4 5 6 7 8 9 10 11 12 13 14 15 16 17 18 19 20 21 22 23 24 25 26 27

000
ASUS45 KCYS 151110
RWRWY

WYOMING REGIONAL WEATHER ROUNDUP
NATIONAL WEATHER SERVICE CHEYENNE WY
400 AM MST FRI DEC 15 2017

NOTE:  "FAIR" INDICATES FEW OR NO CLOUDS BELOW 12,000 FEET
WITH NO SIGNIFICANT WEATHER AND/OR OBSTRUCTIONS TO VISIBILITY.

WYZ001-151200-
YELLOWSTONE NATIONAL PARK

CITY           SKY/WX    TMP DP  RH WIND       PRES   REMARKS
LK YELLOWSTONE   N/A      8   5  87 CALM      30.27F
W YELLOWSTONE  NOT AVBL

$$
WYZ002>013-054>058-071-098>099-151200-
NORTHERN WYOMING

CITY           SKY/WX    TMP DP  RH WIND       PRES   REMARKS
JACKSON        CLOUDY    11   7  84 CALM      30.33S
CODY           FAIR      34  11  38 W7G24     30.01F WCI  28
GREYBULL       FAIR      18  14  84 SE3       30.07F
WORLAND        FAIR      15  13  91 SW5       30.07F WCI   8
SHERIDAN       FAIR      23  13  65 SE3       29.92F
BUFFALO        FAIR      33   3  28 SW7       29.94F WCI  27
GILLETTE       FAIR      32  14  47 SW12      29.93F WCI  23
HULETT         FAIR      32  18  55 SW9       29.92F WCI  24
NEWCASTLE      FAIR      19  14  79 E5        29.97F WCI  13

$$
WYZ014>020-022>026-101>103-151200-
CENTRAL WYOMING

CITY           SKY/WX    TMP DP  RH WIND       PRES   REMARKS
BIG PINEY      FAIR       7   3  84 NW7       30.23F WCI  -5
PINEDALE       FAIR      12   5  73 CALM      30.22S
DUBOIS         FAIR      28   3  34 NW25      30.13F WCI  14
LANDER         FAIR      17  12  80 CALM      30.07F
RIVERTON       FAIR      18  14  84 S8        30.08F WCI   8
CASPER         FAIR      30  17  58 SW28G40   30.04F WCI  15
DOUGLAS        FAIR      21  15  78 CALM      30.02F

$$
WYZ021-027>030-104>119-151200-
SOUTHERN WYOMING

CITY           SKY/WX    TMP DP  RH WIND       PRES   REMARKS
EVANSTON       FAIR      21  16  81 SW12      30.31S WCI   9
FORT BRIDGER   FAIR      30   7  36 W6        30.30S WCI  24
ROCK SPRINGS   FAIR      28  10  46 W17G28    30.21F WCI  16
DIXON          FAIR      13   9  83 CALM      30.30F
RAWLINS        FAIR      28  14  55 SW23G36   30.18R WCI  14
SARATOGA       FAIR      21  10  63 SE16      30.21F WCI   7
LARAMIE        FAIR      19  10  68 W9        30.11F WCI   8
CHEYENNE       FAIR      31  12  45 W23       30.03F WCI  18
TORRINGTON     FAIR      13  10  88 NE5       30.02F WCI   5
PINE BLUFFS    FAIR      19  10  68 W5        30.05F WCI  13

$$




USA.gov is the U.S. government's official web portal to all federal, state and local government web resources and services.